Weather History for KLAS - July, 2013

Change the Weather History Date:

Saturday, July 27, 2013

  Actual Average Record
Temperature  
Mean Temperature 86 °F 93 °F  
Max Temperature 93 °F 104 °F 115 °F (1943)
Min Temperature 79 °F 81 °F 63 °F (1944)
Degree Days  
Heating Degree Days 0 0  
Month to date heating degree days 0 0  
Since 1 June heating degree days 0 1  
Since 1 July heating degree days 0 0  
Cooling Degree Days 21 28  
Month to date cooling degree days 811 743  
Year to date cooling degree days 2305 1943  
Since 1 June cooling degree days 1615 1393  
Growing Degree Days 35 (Base 50)    
Moisture  
Dew Point 60 °F    
Average Humidity 45    
Maximum Humidity 58    
Minimum Humidity 32    
Precipitation  
Precipitation 0.00 in 0.02 in 0.33 in (1984)
Month to date precipitation 0.30 0.33  
Year to date precipitation 0.91 2.41  
Snow  
Snow 0.00 in 0.00 in 0.00 in ()
Month to date snowfall 0.0 0.0  
Since 1 June snowfall 0.0 0.0  
Since 1 July snowfall 0.0 0.0  
Snow Depth 0.00 in    
Sea Level Pressure  
Sea Level Pressure 29.86 in    
Wind  
Wind Speed 7 mph (North)    
Max Wind Speed 20 mph    
Max Gust Speed 25 mph    
Visibility 10 miles    
Events      
T = Trace of Precipitation, MM = Missing Value Source: NWS Daily Summary

Daily Weather History Graph

Daily Weather History Graph

Search for Another Location

Airport or City:

Trip Planner

Search our weather history database for the weather conditions in past years. The results will help you decide how hot, cold, wet, or windy it might be!

Date:

Astronomy

Jul. 27, 2013 Rise Set
Actual Time 5:44 AM PDT 7:49 PM PDT
Civil Twilight 5:15 AM PDT 8:18 PM PDT
Nautical Twilight 4:40 AM PDT 8:53 PM PDT
Astronomical Twilight 4:02 AM PDT 9:30 PM PDT
Moon 10:52 PM PDT (7/27) 11:16 AM PDT (7/27)
Length of Visible Light 15h 02m
Length of Day
14h 05m
Waning Gibbous, 70% of the Moon is Illuminated
Jul 27
Waning Gibbous
Jul 29
Last Quarter
Aug 6
New
Aug 14
First Quarter
Aug 20
Full

Hourly Weather History & Observations

Time (PDT) Temp. Heat Index Dew Point Humidity Pressure Visibility Wind Dir Wind Speed Gust Speed Precip Events Conditions
12:03 AM 84.2 °F 85.0 °F 62.6 °F 48% 30.01 in 10.0 mi NE 21.9 mph 29.9 mph N/A   Mostly Cloudy
12:56 AM 81.0 °F 81.9 °F 62.1 °F 52% 29.94 in 10.0 mi NE 19.6 mph 27.6 mph N/A   Scattered Clouds
1:56 AM 80.1 °F 81.1 °F 61.0 °F 52% 29.96 in 10.0 mi ENE 12.7 mph 21.9 mph N/A   Mostly Cloudy
2:56 AM 80.1 °F 81.1 °F 61.0 °F 52% 29.96 in 10.0 mi NE 8.1 mph - N/A   Mostly Cloudy
3:56 AM 79.0 °F - 62.1 °F 56% 29.95 in 10.0 mi NE 5.8 mph - N/A   Mostly Cloudy
4:56 AM 79.0 °F - 61.0 °F 54% 29.94 in 10.0 mi SSE 5.8 mph - N/A   Mostly Cloudy
5:56 AM 79.0 °F - 61.0 °F 54% 29.93 in 10.0 mi South 9.2 mph - N/A   Mostly Cloudy
6:56 AM 79.0 °F - 62.1 °F 56% 29.92 in 10.0 mi South 8.1 mph - N/A   Mostly Cloudy
7:56 AM 81.0 °F 81.7 °F 61.0 °F 50% 29.93 in 10.0 mi SSE 5.8 mph - N/A   Mostly Cloudy
8:56 AM 82.9 °F 83.3 °F 61.0 °F 47% 29.90 in 10.0 mi ESE 4.6 mph - N/A   Mostly Cloudy
9:56 AM 84.9 °F 85.0 °F 61.0 °F 44% 29.88 in 10.0 mi Variable 3.5 mph - N/A   Mostly Cloudy
10:56 AM 88.0 °F 87.9 °F 61.0 °F 40% 29.90 in 10.0 mi Variable 3.5 mph - N/A   Mostly Cloudy
11:56 AM 88.0 °F 87.9 °F 61.0 °F 40% 29.88 in 10.0 mi SW 3.5 mph - N/A   Mostly Cloudy
12:56 PM 91.9 °F 91.8 °F 61.0 °F 35% 29.86 in 10.0 mi Variable 3.5 mph - N/A   Mostly Cloudy
1:56 PM 89.1 °F 89.3 °F 62.1 °F 40% 29.83 in 10.0 mi WNW 13.8 mph - N/A   Mostly Cloudy
2:56 PM 91.0 °F 90.9 °F 61.0 °F 36% 29.83 in 10.0 mi NW 8.1 mph - N/A   Mostly Cloudy
3:56 PM 91.9 °F 91.8 °F 61.0 °F 35% 29.80 in 10.0 mi NNW 15.0 mph 20.7 mph N/A   Mostly Cloudy
4:56 PM 89.1 °F 88.8 °F 60.1 °F 38% 29.78 in 10.0 mi NW 13.8 mph 21.9 mph N/A   Mostly Cloudy
5:56 PM 91.9 °F 90.8 °F 57.9 °F 32% 29.75 in 10.0 mi WNW 6.9 mph - N/A   Mostly Cloudy
6:56 PM 91.0 °F 90.0 °F 57.9 °F 33% 29.75 in 10.0 mi NNW 10.4 mph - N/A   Mostly Cloudy
7:56 PM 89.1 °F 88.0 °F 57.9 °F 35% 29.76 in 10.0 mi NNW 8.1 mph - N/A   Scattered Clouds
8:56 PM 88.0 °F 86.9 °F 57.9 °F 36% 29.77 in 10.0 mi NNW 6.9 mph - N/A   Scattered Clouds
9:56 PM 87.1 °F 86.5 °F 59.0 °F 39% 29.78 in 10.0 mi North 6.9 mph - N/A   Scattered Clouds
10:56 PM 86.0 °F 85.4 °F 59.0 °F 40% 29.76 in 10.0 mi NE 3.5 mph - N/A   Scattered Clouds
11:56 PM 86.0 °F 85.7 °F 60.1 °F 41% 29.75 in 10.0 mi Calm Calm - N/A   Partly Cloudy